This demonstration page uses our WeatherBlox Daily Observations layout. Learn more.

Left ArrowRight Arrow

Hourly Observations for September 4, 2020

Temp ( °F °C ) Dew Point ( °F °C ) Humidity (%) Winds ( mph kmh ) Pressure ( in mb ) Visibility ( mi km ) Precip ( " mm )
12:54 am 00:54 Clear 53 11.7 46 7.8 77 77 N 3 6 30.12 1020 9 14.48406 0 0
1:54 am 01:54 Clear 51 10.6 46 7.8 83 83 Calm 30.13 1020 9 14.48406 0 0
2:54 am 02:54 Clear 48 8.9 43 6.1 83 83 NNE 3 6 30.12 1020 10 16.0934 0 0
3:54 am 03:54 Clear 48 8.9 44 6.7 86 86 Calm 30.13 1020 10 16.0934 0 0
4:54 am 04:54 Clear 48 8.9 44 6.7 86 86 N 5 7 30.14 1021 10 16.0934 0 0
5:54 am 05:54 Clear 49 9.4 44 6.7 83 83 Calm 30.15 1021 10 16.0934 0 0
6:54 am 06:54 Clear 48 8.9 44 6.7 86 86 Calm 30.17 1022 10 16.0934 0 0
7:54 am 07:54 Sunny 53 11.7 47 8.3 80 80 Calm 30.18 1022 10 16.0934 0 0
8:54 am 08:54 Sunny 60 15.6 49 9.4 67 67 SW 3 6 30.2 1023 9 14.48406 0 0
9:54 am 09:54 Sunny 67 19.4 49 9.4 53 53 SSW 5 7 30.21 1023 9 14.48406 0 0
10:54 am 10:54 Sunny 75 23.9 45 7.2 34 34 SSW 9 15 30.21 1023 9 14.48406 0 0
11:54 am 11:54 Sunny 79 26.1 43 6.1 28 28 SSW 12 19 30.19 1022 10 16.0934 0 0
12:54 pm 12:54 Sunny 82 27.8 40 4.4 22 22 WSW 13 20 30.17 1022 10 16.0934 0 0
1:54 pm 13:54 Sunny 83 28.3 42 5.6 24 24 SSW 14 22 30.15 1021 10 16.0934 0 0
2:54 pm 14:54 Sunny 85 29.4 43 6.1 23 23 SW 10 17 30.14 1021 10 16.0934 0 0
3:54 pm 15:54 Sunny 86 30 43 6.1 22 22 WSW 9 15 30.13 1020 10 16.0934 0 0
4:54 pm 16:54 Sunny 87 30.6 44 6.7 22 22 SW 12 19 30.11 1020 10 16.0934 0 0
5:54 pm 17:54 Sunny 86 30 44 6.7 23 23 W 6 9 30.11 1020 10 16.0934 0 0
6:54 pm 18:54 Sunny 84 28.9 47 8.3 27 27 WSW 6 9 30.11 1020 10 16.0934 0 0
7:54 pm 19:54 Sunny 80 26.7 50 10 35 35 WSW 3 6 30.12 1020 9 14.48406 0 0
8:54 pm 20:54 Clear 70 21.1 52 11.1 53 53 S 5 7 30.15 1021 10 16.0934 0 0
9:54 pm 21:54 Clear 69 20.6 53 11.7 57 57 Calm 30.16 1021 10 16.0934 0 0
10:54 pm 22:54 Clear 63 17.2 53 11.7 70 70 Calm 30.18 1022 10 16.0934 0 0
11:54 pm 23:54 Clear 60 15.6 53 11.7 78 78 Calm 30.19 1022 9 14.48406 0 0

Powered by AerisWeather